This is the latest recevied weather packets stored in our database for station/object N5GC-2. If no packets are shown the sender has not sent any weather packets the latest 10 day(s).
| Time | Temp. | Humidity | Pressure | Rain* | Wind** | Luminosity | Snow |
|---|---|---|---|---|---|---|---|
| 1777731142 | 13.33° C | 70% | - | 0 mm | - | - | - |
| 1777730840 | 12.78° C | 71% | - | 0 mm | - | - | - |
| 1777730537 | 12.78° C | 75% | - | 0 mm | - | - | - |
| 1777730233 | 12.78° C | 75% | - | 0 mm | - | - | - |
| 1777729930 | 12.22° C | 75% | - | 0 mm | - | - | - |
| 1777729019 | 11.11° C | 78% | - | 0 mm | - | - | - |
| 1777728716 | 11.11° C | 77% | - | 0 mm | - | - | - |
| 1777728413 | 10.56° C | 78% | - | 0 mm | - | - | - |
| 1777728110 | 10.56° C | 79% | - | 0 mm | - | - | - |
| 1777727807 | 10° C | 80% | - | 0 mm | - | - | - |
| 1777727504 | 9.44° C | 83% | - | 0 mm | - | - | - |
| 1777727202 | 9.44° C | 86% | - | 0 mm | - | - | - |
| 1777726595 | 8.89° C | 89% | - | 0 mm | - | - | - |
| 1777726293 | 8.89° C | 92% | - | 0 mm | - | - | - |
| 1777725385 | 7.78° C | 94% | - | 0 mm | - | - | - |
| 1777725081 | 7.22° C | 94% | - | 0 mm | - | - | - |
| 1777724778 | 7.22° C | 94% | - | 0 mm | - | - | - |
| 1777724475 | 6.67° C | 94% | - | 0 mm | - | - | - |
| 1777724173 | 6.67° C | 94% | - | 0 mm | - | - | - |
| 1777723870 | 6.67° C | 94% | - | 0 mm | - | - | - |
| 1777722657 | 6.11° C | 93% | - | 0 mm | - | - | - |
| 1777722354 | 6.67° C | 93% | - | 0 mm | - | - | - |
| 1777722050 | 6.67° C | 93% | - | 0 mm | - | - | - |
| 1777721748 | 6.67° C | 93% | - | 0 mm | - | - | - |
| 1777721446 | 6.67° C | 93% | - | 0 mm | - | - | - |
* Rain latest hour (hover to see other rain measurements)
** Current wind speed in m/s (hover to see current wind gust speed)